Regional Weather Roundup
Issued by NWS Mt. Holly, NJ

Home | Current Version | Previous Version | Text Only | Print | Product List | Glossary On
Versions: 1 2 3 4 5 6 7 8 9 10 11 12 13 14 15 16 17 18 19 20 21 22 23 24 25 26 27
000
ASUS41 KPHI 280512
RWRPHI

REGIONAL WEATHER ROUNDUP
NATIONAL WEATHER SERVICE MOUNT HOLLY NJ
100 AM EDT SUN AUG 28 2016

NOTE:  "FAIR" INDICATES FEW OR NO CLOUDS BELOW 12,000 FEET WITH NO
SIGNIFICANT WEATHER AND/OR OBSTRUCTIONS TO VISIBILITY.

 * = STATION DOES NOT REPORT PRECIPITATION (E.G. RAIN, SNOW, ETC.)
        OR FOG.

NJZ015>026-280600-
SOUTHERN NEW JERSEY

CITY           SKY/WX    TMP DP  RH WIND       PRES   REMARKS
POMONA         CLEAR     69  67  93 E3        30.21F
WILDWOOD*        N/A     74  71  91 E7        30.21F
MILLVILLE      CLEAR     69  69 100 E3        30.21F
WRIGHTSTOWN    CLEAR     67  67  98 CALM      30.20S
MOUNT HOLLY      N/A     66  64  93 CALM      30.22F
TRENTON        CLEAR     69  61  75 CALM      30.22F

$$
NJZ001>014-280600-
NORTHERN NEW JERSEY

CITY           SKY/WX    TMP DP  RH WIND       PRES   REMARKS
SUSSEX         CLOUDY    64  64 100 SW3       30.24S
ANDOVER*         N/A     63  60  90 CALM      30.25S
MORRISTOWN     PTCLDY    61  59  94 CALM      30.23S
NEWARK         MOCLDY    75  65  70 S3        30.22S
TETERBORO      PTCLDY    74  62  66 CALM      30.22R
CALDWELL       CLOUDY    69  61  75 CALM      30.24R
SOMERVILLE     CLEAR     65  62  90 CALM      30.22S
ALLAIRE*       CLEAR     70  69  97 SE6       30.24S
TOMS RIVER*    PTCLDY    63  59  88 CALM      30.22F

$$
PAZ043-044-047-054-055-060>062-066>071-280600-
EASTERN PENNSYLVANIA

CITY           SKY/WX    TMP DP  RH WIND       PRES   REMARKS
PHILADELPHIA   PTCLDY    72  67  84 E3        30.23S
NORTH PHILA    CLEAR     70  65  84 CALM      30.24S
BLUE BELL*     CLEAR     63  61  94 CALM      30.23S
DOYLESTOWN     CLEAR     68  64  87 CALM      30.23F
QUAKERTOWN*    CLEAR     64  61  88 CALM      30.24F
POTTSTOWN      PTCLDY    67  60  78 CALM      30.24F
LANCASTER      CLEAR     69  68  96 E5        30.22R
COATESVILLE    CLEAR     72  64  78 CALM      30.25S
READING        CLEAR     74  60  61 S5        30.21S
ALLENTOWN      PTCLDY    69  61  75 NE3       30.23S
MOUNT POCONO   CLEAR     62  57  83 SE5       30.29S
WILKES BARRE   CLEAR     69  62  78 E5        30.23S

$$
DEZALL-MDZ008-012-015-019-020-280600-
DELAWARE AND EASTERN MARYLAND

CITY           SKY/WX    TMP DP  RH WIND       PRES   REMARKS
WILMINGTON     CLEAR     74  67  78 E6        30.22F
DOVER          CLEAR     73  73 100 E6        30.19F
GEORGETOWN     NOT AVBL
EASTON         CLEAR     72  72 100 CALM      30.24S
PATUXENT       CLEAR     76  72  87 E9        30.18F
OCEAN CITY     CLEAR     77  72  84 NE7       30.19F
WALLOPS ISLAND PTCLDY    78  66  66 NE12      30.19F
CAMBRIDGE      CLEAR     70  68  94 CALM      30.20S
SALISBURY      CLEAR     71  70  96 NE5       30.19F

$$
PAZ001-021-NYZ056-072-MDZ011-DCZ001-280600-
OTHER NEARBY LOCATIONS

CITY           SKY/WX    TMP DP  RH WIND       PRES   REMARKS
HARRISBURG     PTCLDY    74  67  78 E6        30.20R
STATE COLLEGE  CLEAR     71  66  83 CALM      30.22S
WILLIAMSPORT   CLEAR     69  65  86 CALM      30.18F
BINGHAMTON     CLEAR     67  62  84 SE5       30.24S
NEW YORK CITY  PTCLDY    75  58  55 CALM      30.25S
BALTIMORE      CLEAR     73  68  84 E3        30.20S
WASHINGTON DC  PTCLDY    78  69  73 SE6       30.20S

$$




USA.gov is the U.S. government's official web portal to all federal, state and local government web resources and services.